Regional Weather Roundup
Issued by NWS

Home | Current Version | Previous Version | Text Only | Print | Product List | Glossary On
Versions: 1 2 3 4 5 6 7 8 9 10 11 12 13 14 15 16 17 18 19 20 21 22 23 24 25 26 27 28 29 30 31 32 33 34 35 36 37 38 39 40 41 42 43 44 45 46 47 48 49 50
000
ASUS43 KDMX 310608
RWRIA

WEATHER ROUNDUP FOR IOWA
NATIONAL WEATHER SERVICE DES MOINES IA
100 AM CDT TUE MAY 31 2016

NOTE: "FAIR" INDICATES FEW OR NO CLOUDS BELOW 12,000 FEET WITH NO
SIGNIFICANT WEATHER AND/OR OBSTRUCTIONS TO VISIBILITY.

* - THESE STATIONS ARE NOT NWS STATIONS...THUS NOT UNDER NWS
QUALITY CONTROL.  THEY ALSO DO NOT REPORT WEATHER SUCH
AS PRECIPITATION OR FOG.

IAZ001>003-012>014-020>022-031>034-043>046-310700-
   NORTHWEST IOWA

CITY           SKY/WX    TMP DP  RH WIND       PRES   REMARKS
CARROLL *      MOCLDY    68  59  73 SE8       29.90S
CHEROKEE *     CLOUDY    67  56  68 S15G28    29.88R
DENISON *      CLOUDY    68  61  77 S12G17    29.85F
LE MARS *      PTCLDY    68  61  77 S18G25    29.83S
ORANGE CITY *  CLEAR     66  59  77 S16       29.84R
SHELDON *      PTCLDY    66  57  72 S17       29.84R
SIOUX CITY     CLOUDY    71  61  70 S16G24    29.83S
6HR MIN TEMP:  69; 6HR MAX TEMP:  86;

SPENCER        LGT RAIN  65  58  78 SE14      29.88R
6HR MIN TEMP:  66; 6HR MAX TEMP:  84; 6HR PCP: TRACE;

STORM LAKE *   RAIN      63  55  77 E13G23    29.91S
$$

IAZ055>058-069>071-079>083-090>094-310700-
   SOUTHWEST IOWA

CITY           SKY/WX    TMP DP  RH WIND       PRES   REMARKS
ATLANTIC *     MOCLDY    66  63  88 S7        29.89F
AUDUBON *      MOCLDY    68  61  77 S8        29.90F
CLARINDA *       N/A     66  64  94 MISG      29.93F
COUNCIL BLFS * CLEAR     68  63  83 S15       29.89S
CRESTON *      CLOUDY    68  61  77 SW13G21   29.94F
HARLAN  *      CLEAR     68  61  77 S12       29.92S
LAMONI         PTCLDY    63  59  87 S10       29.96R
6HR MIN TEMP:  63; 6HR MAX TEMP:  74;

RED OAK *      CLEAR     68  64  88 S10       29.90S
SHENANDOAH *   CLEAR     68  64  88 S12       29.90F
$$

IAZ047>049-059>061-072>074-084-310700-
   CENTRAL IOWA

CITY           SKY/WX    TMP DP  RH WIND       PRES   REMARKS
AMES           CLOUDY    64  61  90 E8        29.95S
6HR MIN TEMP:  64; 6HR MAX TEMP:  73; 6HR PCP:  0.64;

ANKENY *       CLEAR     66  59  77 SE3       29.94S
BOONE *          N/A     64  61  88 SE14      29.93S
CHARITON *     MOCLDY    64  61  88 S9        29.95F
DES MOINES     CLOUDY    69  57  65 SE6       29.93F
6HR MIN TEMP:  69; 6HR MAX TEMP:  82;

GRINNELL*      CLOUDY    64  61  88 E8        29.98F
KNOXVILLE *    CLOUDY    66  59  77 SE6       29.94S
MARSHALLTOWN   CLOUDY    64  60  87 E13       29.96S
6HR MIN TEMP:  64; 6HR MAX TEMP:  78; 6HR PCP: TRACE;

NEWTON *       CLOUDY    66  61  82 E10       29.96F
PELLA *        PTCLDY    65  60  82 CALM      29.97F
PERRY *        CLOUDY    68  63  83 SE9       29.92S
$$

IAZ004>006-015-016-023>025-035-036-310700-
   NORTH CENTRAL IOWA

CITY           SKY/WX    TMP DP  RH WIND       PRES   REMARKS
ALGONA *       CLEAR     64  59  82 SE9G16    29.91S
CLARION *      PTCLDY    64  61  88 SE13      29.92S
ESTHERVILLE    CLOUDY    64  58  80 SE17      29.87F
6HR MIN TEMP:  64; 6HR MAX TEMP:  80; 6HR PCP: TRACE;

FORT DODGE *   MOCLDY    64  57  77 SE6       29.93R
MASON CITY     CLOUDY    64  59  83 SE10      29.93F
6HR MIN TEMP:  63; 6HR MAX TEMP:  76; 6HR PCP:  0.35;

FOREST CITY *  CLOUDY    61  61 100 SE3       29.92R
WEBSTER CITY * PTCLDY    64  61  88 SE12      29.91F
IOWA FALLS *     N/A     64  61  88 SE9       29.95F
$$

IAZ007>011-017>019-026>030-037>042-050>054-066-310700-
   NORTHEAST IOWA

CITY           SKY/WX    TMP DP  RH WIND       PRES   REMARKS
CEDAR RAPIDS   MOCLDY    65  61  87 N7        29.97F
6HR MIN TEMP:  65; 6HR MAX TEMP:  83; 6HR PCP:  0.11;

CHARLES CITY * MOCLDY    64  63  94 S8        29.95F
CLINTON *      PTCLDY    70  63  78 S5        29.97S
DECORAH *      LGT RAIN  63  61  94 VRB5G14   30.02S
DUBUQUE        CLOUDY    65  62  90 N5        29.99S
6HR MIN TEMP:  65; 6HR MAX TEMP:  79; 6HR PCP:  0.07;

MONTICELLO *   CLEAR     66  61  82 NW12      29.98S
OELWEIN *      MOCLDY    64  59  82 E9        29.97F
WATERLOO       CLOUDY    62  59  90 E6        29.95F
6HR MIN TEMP:  62; 6HR MAX TEMP:  79; 6HR PCP:  0.73;

$$

IAZ064-065-067-068-078-310700-
   EAST CENTRAL IOWA

CITY           SKY/WX    TMP DP  RH WIND       PRES   REMARKS
DAVENPORT      CLEAR     69  62  78 S6        29.97S
6HR MIN TEMP:  67; 6HR MAX TEMP:  83;

IOWA CITY      PTCLDY    70  61  73 N12       29.98S
6HR MIN TEMP:  69; 6HR MAX TEMP:  84;

MT. PLEASANT * PTCLDY    69  63  81 CALM      29.98S
MUSCATINE *    CLEAR     70  64  83 CALM      29.97S
QUAD CITIES    CLEAR     70  62  76 CALM      29.96S
6HR MIN TEMP:  67; 6HR MAX TEMP:  85;

$$

IAZ062-063-075>077-085>089-095>099-310700-
   SOUTHEAST IOWA

CITY           SKY/WX    TMP DP  RH WIND       PRES   REMARKS
BURLINGTON     CLOUDY    68  63  84 SW3       29.98R
6HR MIN TEMP:  68; 6HR MAX TEMP:  81;

FAIRFIELD *      N/A    N/A N/A N/A MISG        N/A
FORT MADISON * CLEAR     68  61  77 CALM      29.99S
KEOKUK *       CLEAR     68  59  73 CALM      29.98S
OSKALOOSA *      N/A     65  58  80 CALM      29.98R
OTTUMWA        PTCLDY    64  59  83 S6        29.97R
6HR MIN TEMP:  63; 6HR MAX TEMP:  79;

WASHINGTON *   CLEAR     66 -40   1 W5        29.99S
$$

ABBREVIATIONS USED IN REMARKS
   TC - TEMPERATURES IN CELSIUS
  WCI - WIND CHILL INDEX
   HX - HEAT INDEX
  VSB - VISIBILITY
$$





USA.gov is the U.S. government's official web portal to all federal, state and local government web resources and services.